Location: Villa Manor Trailer Court
(37.7380°N, 100.0303°W)
Time: 15:42:12
(UTC+00:00)

Daily predictions for brighter satellites

Satellite Brightness Start Highest point End
(mag) Time Altitude Azimuth Time Altitude Azimuth Time Altitude Azimuth
ATLAS 5 CENTAUR R/B 1.1 12:03:12 44° WSW 12:04:12 64° NW 12:08:17 10° NNE
Cosmos 2279 Rocket 3.9 12:01:03 10° NNW 12:07:08 62° W 12:13:13 10° S
Cosmos 1340 Rocket 3.5 12:04:08 10° S 12:07:58 55° E 12:11:54 10° NNE
Envisat 3.0 12:04:50 10° N 12:09:47 54° WNW 12:14:42 10° SSW
Nadezhda 4 Rocket 4.0 12:06:00 10° S 12:12:10 85° E 12:18:25 10° N
Cosmos 1500 Rocket 4.0 12:08:35 10° S 12:12:59 65° E 12:17:26 10° NNE
Cosmos 1174 3.7 12:13:58 38° NNW 12:13:58 38° NNW 12:16:16 10° NNE
SKYMED 2 3.5 12:10:23 10° S 12:14:40 63° W 12:18:24 14° NNW
Meteor 2-15 4.3 12:12:35 10° N 12:18:38 77° W 12:24:39 10° S
ATLAS 3B R/B 2.5 12:16:49 10° SW 12:23:17 76° NW 12:30:04 10° NNE
Cosmos 1151 Rocket 4.0 12:23:48 25° W 12:23:58 25° W 12:27:33 10° SW
H-2A R/B 3.7 12:22:07 10° SE 12:25:57 33° ENE 12:29:53 10° N
BREEZE-M DEB (TANK) 4.4 12:16:49 17° NW 12:26:18 62° NNE 12:30:07 10° ESE
H-2A R/B 4.1 12:28:04 20° WSW 12:28:04 20° WSW 12:29:46 10° SW
Lacrosse 5 4.0 12:22:30 10° S 12:26:50 29° ESE 12:31:11 10° ENE
Meteor 1-27 Rocket 3.8 12:21:43 10° N 12:27:26 87° ENE 12:33:15 10° S
Meteor 2-19 Rocket 4.4 12:23:36 10° SSW 12:29:33 61° W 12:35:33 10° N
COSMOS 2487 3.8 12:27:16 10° N 12:30:24 36° ENE 12:33:31 10° SE
Cosmos 1092 Rocket 4.4 12:25:03 10° S 12:31:13 70° E 12:37:30 10° NNE
CZ-4C R/B 2.6 12:30:05 10° S 12:33:11 66° WSW 12:36:13 10° NNW
Meteor 1-31 Rocket 3.5 12:30:00 10° N 12:33:27 31° WNW 12:36:55 10° SW
FAST Rocket 3.8 12:35:13 10° SSW 12:37:47 71° W 12:40:46 10° N
SL-4 R/B 1.6 12:34:39 10° SW 12:38:07 87° SE 12:41:48 10° NE
Cosmos 1939 Rocket 3.5 12:34:22 10° NNE 12:38:12 56° E 12:41:59 10° S
BREEZE-M DEB 3.3 12:37:56 16° WSW 12:40:19 59° NNW 12:48:32 10° NE
NOSS 2 (A) 4.4 12:43:44 13° NNW 12:45:52 61° ENE 12:48:12 10° SE
DELTA 2 R/B (1) 3.6 12:41:22 16° WNW 12:45:55 76° N 12:51:29 10° E
SMAP 3.7 12:43:39 10° NNE 12:48:16 61° E 12:52:51 10° S
Meteor 1-25 Rocket 4.2 12:42:47 10° S 12:48:24 88° W 12:54:01 10° N
Cosmos 2297 Rocket 3.9 12:43:53 10° N 12:48:49 29° ENE 12:53:42 10° ESE
SL-8 R/B 4.0 12:46:34 15° WNW 12:50:26 55° SW 12:55:05 10° SE
USA 215 3.6 12:45:13 10° ESE 12:51:38 62° NE 12:58:04 10° NW
CZ-2C R/B 3.7 12:54:23 10° SSW 12:58:54 26° W 13:03:22 10° NW
NOAA 12 4.0 12:54:41 10° N 12:59:55 70° WNW 13:05:06 10° SSW
Cosmos 1602 3.8 12:59:06 10° SSW 13:02:47 50° W 13:06:31 10° N
COSMO-SKYMED 1 4.1 13:00:00 10° SW 13:02:56 18° W 13:05:54 10° NW
Cosmos 1633 Rocket 4.2 13:02:17 10° SSE 13:06:26 47° E 13:10:36 10° NNE
OAO 2 Rocket 4.2 13:01:36 10° WSW 13:06:37 50° SSE 13:11:31 10° E
SL-27 R/B 4.0 13:05:23 10° NW 13:07:59 19° W 13:10:33 10° SSW
ADEOS 4.3 13:05:19 10° N 13:09:51 31° WNW 13:14:22 10° SW
IRAS Rocket 4.5 13:06:15 10° S 13:11:35 51° WSW 13:16:56 10° NNW
Cosmos 1538 Rocket 4.1 13:10:40 10° NNW 13:15:47 60° WSW 13:20:51 10° S
CORIOLIS 4.3 13:10:40 10° NNE 13:16:08 89° WNW 13:21:34 10° SSW
Cosmos 2026 Rocket 4.1 13:11:30 10° SSW 13:17:45 61° W 13:23:58 10° N
FALCON 9 R/B 4.1 13:07:21 10° WNW 13:25:30 46° SW 13:30:58 10° SE
Cosmos 2279 Rocket 4.4 23:43:00 10° SSE 23:48:47 43° E 23:54:34 10° NNE
SMAP 3.3 23:44:49 10° SSE 23:49:17 49° ENE 23:53:46 10° N
ATLAS 5 CENTAUR R/B 4.1 23:49:49 10° NNW 23:52:06 12° N 23:53:46 10° NNE
CZ-4B R/B 4.2 23:48:25 10° ESE 23:52:25 22° ENE 23:56:25 10° NNE
BREEZE-M DEB (TANK) 4.2 23:44:33 10° NW 23:53:30 75° SW 23:56:37 10° SE
Lacrosse 5 rocket 3.0 23:51:11 10° N 23:53:36 15° NNE 23:56:05 10° ENE
Meteor PRIRODA 3.9 23:51:36 10° S 23:55:12 72° WSW 23:58:49 10° NNW
